Time,TemperatureF,DewpointF,PressureIn,WindDirection,WindDirectionDegrees,WindSpeedMPH,WindSpeedGustMPH,Humidity,HourlyPrecipIn,Conditions,Clouds,dailyrainin,SolarRadiationWatts/m^2,SoftwareType,DateUTC
2013-11-26 00:02:00,43.3,37.6,29.75,WSW,254,0.0,0.0,80,0.00,,,0.00,0,WeatherCatV1.02B3,2013-11-26 08:02:00,
2013-11-26 00:07:00,43.1,37.4,29.75,WSW,254,0.0,0.0,80,0.00,,,0.00,0,WeatherCatV1.02B3,2013-11-26 08:07:00,
2013-11-26 00:12:00,43.0,37.3,29.75,WSW,254,0.0,0.0,80,0.00,,,0.00,0,WeatherCatV1.02B3,2013-11-26 08:12:00,
2013-11-26 00:17:00,42.9,37.5,29.75,NW,318,0.0,2.0,81,0.00,,,0.00,0,WeatherCatV1.02B3,2013-11-26 08:17:00,
2013-11-26 00:22:00,42.9,37.5,29.75,North,355,0.0,1.0,81,0.00,,,0.00,0,WeatherCatV1.02B3,2013-11-26 08:22:00,
2013-11-26 00:27:00,42.8,37.4,29.75,North,355,0.0,0.0,81,0.00,,,0.00,0,WeatherCatV1.02B3,2013-11-26 08:27:00,
2013-11-26 00:32:00,42.9,37.8,29.75,NE,40,0.0,1.0,82,0.00,,,0.00,0,WeatherCatV1.02B3,2013-11-26 08:32:00,
2013-11-26 00:37:00,43.2,38.4,29.75,ENE,62,0.0,3.0,83,0.00,,,0.00,0,WeatherCatV1.02B3,2013-11-26 08:37:00,
2013-11-26 00:42:00,43.5,38.4,29.75,NNW,346,0.0,3.0,82,0.00,,,0.00,0,WeatherCatV1.02B3,2013-11-26 08:42:00,
2013-11-26 00:47:00,43.5,38.4,29.75,NNW,346,0.0,0.0,82,0.00,,,0.00,0,WeatherCatV1.02B3,2013-11-26 08:47:00,
2013-11-26 00:50:00,42.3,37.5,29.75,NE,46,0.0,1.0,83,0.00,,,0.00,0,WeatherCatV1.02B3,2013-11-26 08:50:00,
2013-11-26 00:55:00,42.2,37.4,29.75,NE,47,0.0,0.0,83,0.00,,,0.00,0,WeatherCatV1.02B3,2013-11-26 08:55:00,
2013-11-26 01:00:00,42.1,37.0,29.75,NE,47,0.0,0.0,82,0.00,,,0.00,0,WeatherCatV1.02B3,2013-11-26 09:00:00,
2013-11-26 01:05:00,42.0,37.2,29.75,NE,50,0.0,1.0,83,0.00,,,0.00,0,WeatherCatV1.02B3,2013-11-26 09:05:00,
2013-11-26 01:10:00,41.9,37.1,29.75,NE,45,0.0,1.0,83,0.00,,,0.00,0,WeatherCatV1.02B3,2013-11-26 09:10:00,
2013-11-26 01:15:00,41.8,37.0,29.75,NE,37,0.0,1.0,83,0.00,,,0.00,0,WeatherCatV1.02B3,2013-11-26 09:15:00,
2013-11-26 01:20:00,41.7,36.9,29.75,NE,36,0.0,1.0,83,0.00,,,0.00,0,WeatherCatV1.02B3,2013-11-26 09:20:00,
2013-11-26 01:25:00,41.5,36.7,29.75,NE,36,0.0,0.0,83,0.00,,,0.00,0,WeatherCatV1.02B3,2013-11-26 09:25:00,
2013-11-26 01:30:00,41.4,36.6,29.75,NE,36,0.0,0.0,83,0.00,,,0.00,0,WeatherCatV1.02B3,2013-11-26 09:30:00,
2013-11-26 01:35:00,41.3,36.5,29.75,NE,36,0.0,0.0,83,0.00,,,0.00,0,WeatherCatV1.02B3,2013-11-26 09:35:00,
2013-11-26 01:40:00,41.2,36.7,29.75,NE,36,0.0,0.0,84,0.00,,,0.00,0,WeatherCatV1.02B3,2013-11-26 09:40:00,
2013-11-26 01:45:00,41.2,36.7,29.75,NE,36,0.0,0.0,84,0.00,,,0.00,0,WeatherCatV1.02B3,2013-11-26 09:45:00,
2013-11-26 01:50:00,41.2,36.7,29.75,ENE,58,0.0,2.0,84,0.00,,,0.00,0,WeatherCatV1.02B3,2013-11-26 09:50:00,
2013-11-26 01:55:00,41.1,36.6,29.75,ENE,67,0.0,1.0,84,0.00,,,0.00,0,WeatherCatV1.02B3,2013-11-26 09:55:00,
2013-11-26 02:00:00,41.1,36.6,29.75,ENE,68,0.0,0.0,84,0.00,,,0.00,0,WeatherCatV1.02B3,2013-11-26 10:00:00,
2013-11-26 02:05:00,41.1,36.6,29.75,ENE,69,0.0,1.0,84,0.00,,,0.00,0,WeatherCatV1.02B3,2013-11-26 10:05:00,
2013-11-26 02:10:00,41.2,37.0,29.75,ENE,58,0.0,2.0,85,0.00,,,0.00,0,WeatherCatV1.02B3,2013-11-26 10:10:00,
2013-11-26 02:15:00,41.3,37.1,29.75,NE,51,1.0,5.0,85,0.00,,,0.00,0,WeatherCatV1.02B3,2013-11-26 10:15:00,
2013-11-26 02:20:00,41.7,37.5,29.75,NNE,29,1.0,1.0,85,0.00,,,0.00,0,WeatherCatV1.02B3,2013-11-26 10:20:00,
2013-11-26 02:25:00,42.0,37.8,29.75,NE,35,1.0,3.0,85,0.00,,,0.00,0,WeatherCatV1.02B3,2013-11-26 10:25:00,
2013-11-26 02:30:00,42.6,38.1,29.75,North,5,1.0,1.0,84,0.00,,,0.00,0,WeatherCatV1.02B3,2013-11-26 10:30:00,
2013-11-26 02:35:00,42.7,38.2,29.75,North,360,1.0,1.0,84,0.00,,,0.00,0,WeatherCatV1.02B3,2013-11-26 10:35:00,
2013-11-26 02:40:00,42.7,38.2,29.75,North,360,1.0,1.0,84,0.00,,,0.00,0,WeatherCatV1.02B3,2013-11-26 10:40:00,
2013-11-26 02:45:00,42.8,38.0,29.75,NNE,15,0.0,2.0,83,0.00,,,0.00,0,WeatherCatV1.02B3,2013-11-26 10:45:00,
2013-11-26 02:50:00,42.7,37.6,29.75,ESE,122,1.0,1.0,82,0.00,,,0.00,0,WeatherCatV1.02B3,2013-11-26 10:50:00,
2013-11-26 02:55:00,42.7,37.6,29.75,SSE,167,1.0,0.0,82,0.00,,,0.00,0,WeatherCatV1.02B3,2013-11-26 10:55:00,
2013-11-26 03:00:00,42.4,37.3,29.75,SW,218,0.0,1.0,82,0.00,,,0.00,0,WeatherCatV1.02B3,2013-11-26 11:00:00,
2013-11-26 03:05:00,42.1,36.7,29.75,SW,236,0.0,0.0,81,0.00,,,0.00,0,WeatherCatV1.02B3,2013-11-26 11:05:00,
2013-11-26 03:10:00,41.9,36.5,29.75,South,187,0.0,0.0,81,0.00,,,0.00,0,WeatherCatV1.02B3,2013-11-26 11:10:00,
2013-11-26 03:15:00,41.7,36.6,29.75,South,176,0.0,1.0,82,0.00,,,0.00,0,WeatherCatV1.02B3,2013-11-26 11:15:00,
2013-11-26 03:20:00,41.5,36.4,29.75,South,174,0.0,0.0,82,0.00,,,0.00,0,WeatherCatV1.02B3,2013-11-26 11:20:00,
2013-11-26 03:25:00,41.3,36.2,29.75,South,173,0.0,0.0,82,0.00,,,0.00,0,WeatherCatV1.02B3,2013-11-26 11:25:00,
2013-11-26 03:30:00,41.1,36.0,29.75,South,173,0.0,0.0,82,0.00,,,0.00,0,WeatherCatV1.02B3,2013-11-26 11:30:00,
2013-11-26 03:35:00,41.0,35.9,29.75,South,173,0.0,0.0,82,0.00,,,0.00,0,WeatherCatV1.02B3,2013-11-26 11:35:00,
2013-11-26 03:40:00,40.9,36.1,29.75,SSE,168,0.0,0.0,83,0.00,,,0.00,0,WeatherCatV1.02B3,2013-11-26 11:40:00,
2013-11-26 03:45:00,40.7,35.9,29.75,SE,143,0.0,1.0,83,0.00,,,0.00,0,WeatherCatV1.02B3,2013-11-26 11:45:00,
2013-11-26 03:50:00,40.6,36.2,29.75,East,100,0.0,0.0,84,0.00,,,0.00,0,WeatherCatV1.02B3,2013-11-26 11:50:00,
2013-11-26 03:55:00,40.6,36.2,29.75,East,89,0.0,2.0,84,0.00,,,0.00,0,WeatherCatV1.02B3,2013-11-26 11:55:00,
2013-11-26 04:00:00,40.6,36.4,29.75,NNE,13,1.0,3.0,85,0.00,,,0.00,0,WeatherCatV1.02B3,2013-11-26 12:00:00,
2013-11-26 04:05:00,40.7,36.6,29.75,NNE,14,1.0,2.0,85,0.00,,,0.00,0,WeatherCatV1.02B3,2013-11-26 12:05:00,
2013-11-26 04:10:00,40.7,36.6,29.75,NNE,14,1.0,2.0,85,0.00,,,0.00,0,WeatherCatV1.02B3,2013-11-26 12:10:00,
2013-11-26 04:15:00,40.6,36.4,29.75,SSE,155,0.0,2.0,85,0.00,,,0.00,0,WeatherCatV1.02B3,2013-11-26 12:15:00,
2013-11-26 04:20:00,40.4,36.2,29.75,ESE,104,0.0,1.0,85,0.00,,,0.00,0,WeatherCatV1.02B3,2013-11-26 12:20:00,
2013-11-26 04:25:00,40.3,36.2,29.75,East,99,0.0,2.0,85,0.00,,,0.00,0,WeatherCatV1.02B3,2013-11-26 12:25:00,
2013-11-26 04:30:00,40.1,35.7,29.75,East,96,0.0,0.0,84,0.00,,,0.00,0,WeatherCatV1.02B3,2013-11-26 12:30:00,
2013-11-26 04:35:00,39.9,35.8,29.75,East,96,0.0,0.0,85,0.00,,,0.00,0,WeatherCatV1.02B3,2013-11-26 12:35:00,
2013-11-26 04:40:00,39.8,35.7,29.75,East,96,0.0,0.0,85,0.00,,,0.00,0,WeatherCatV1.02B3,2013-11-26 12:40:00,
2013-11-26 04:45:00,39.7,35.6,29.75,East,96,0.0,0.0,85,0.00,,,0.00,0,WeatherCatV1.02B3,2013-11-26 12:45:00,
2013-11-26 04:50:00,39.7,35.6,29.75,East,97,0.0,0.0,85,0.00,,,0.00,0,WeatherCatV1.02B3,2013-11-26 12:50:00,
2013-11-26 04:55:00,39.5,35.4,29.75,SE,135,0.0,0.0,85,0.00,,,0.00,0,WeatherCatV1.02B3,2013-11-26 12:55:00,
2013-11-26 05:00:00,39.4,35.3,29.75,SSE,157,0.0,0.0,85,0.00,,,0.00,0,WeatherCatV1.02B3,2013-11-26 13:00:00,
2013-11-26 05:05:00,39.3,35.2,29.75,SSE,162,0.0,0.0,85,0.00,,,0.00,0,WeatherCatV1.02B3,2013-11-26 13:05:00,
2013-11-26 05:10:00,39.2,35.1,29.75,SSE,164,0.0,0.0,85,0.00,,,0.00,0,WeatherCatV1.02B3,2013-11-26 13:10:00,
2013-11-26 05:15:00,39.1,35.0,29.75,SSE,164,0.0,0.0,85,0.00,,,0.00,0,WeatherCatV1.02B3,2013-11-26 13:15:00,
2013-11-26 05:20:00,39.1,35.0,29.75,SSE,164,0.0,0.0,85,0.00,,,0.00,0,WeatherCatV1.02B3,2013-11-26 13:20:00,
2013-11-26 05:25:00,39.1,35.3,29.75,SSE,164,0.0,0.0,86,0.00,,,0.00,0,WeatherCatV1.02B3,2013-11-26 13:25:00,
2013-11-26 05:30:00,39.1,35.3,29.75,SE,142,0.0,0.0,86,0.00,,,0.00,0,WeatherCatV1.02B3,2013-11-26 13:30:00,
2013-11-26 05:35:00,39.2,35.7,29.75,SE,133,0.0,0.0,87,0.00,,,0.00,5,WeatherCatV1.02B3,2013-11-26 13:35:00,
2013-11-26 05:40:00,39.3,35.8,29.75,SE,131,0.0,0.0,87,0.00,,,0.00,0,WeatherCatV1.02B3,2013-11-26 13:40:00,
2013-11-26 05:45:00,39.4,35.9,29.75,SE,130,0.0,0.0,87,0.00,,,0.00,5,WeatherCatV1.02B3,2013-11-26 13:45:00,
2013-11-26 05:50:00,39.3,35.8,29.75,SE,130,0.0,0.0,87,0.00,,,0.00,11,WeatherCatV1.02B3,2013-11-26 13:50:00,
2013-11-26 05:55:00,39.3,35.8,29.75,East,96,0.0,0.0,87,0.00,,,0.00,14,WeatherCatV1.02B3,2013-11-26 13:55:00,
2013-11-26 06:00:00,39.4,35.9,29.75,NW,325,0.0,0.0,87,0.00,,,0.00,19,WeatherCatV1.02B3,2013-11-26 14:00:00,
2013-11-26 06:05:00,39.4,35.9,29.75,NW,325,0.0,0.0,87,0.00,,,0.00,19,WeatherCatV1.02B3,2013-11-26 14:05:00,
2013-11-26 06:10:00,39.4,35.9,29.75,NW,325,0.0,0.0,87,0.00,,,0.00,19,WeatherCatV1.02B3,2013-11-26 14:10:00,
2013-11-26 06:15:00,40.2,36.9,29.75,NE,42,1.0,2.0,88,0.00,,,0.00,37,WeatherCatV1.02B3,2013-11-26 14:15:00,
2013-11-26 06:20:00,40.8,37.5,29.75,NNE,26,1.0,1.0,88,0.00,,,0.00,44,WeatherCatV1.02B3,2013-11-26 14:20:00,
2013-11-26 06:25:00,41.4,37.8,29.75,ENE,58,1.0,1.0,87,0.00,,,0.00,56,WeatherCatV1.02B3,2013-11-26 14:25:00,
2013-11-26 06:30:00,41.7,38.1,29.75,East,101,1.0,2.0,87,0.00,,,0.00,63,WeatherCatV1.02B3,2013-11-26 14:30:00,
2013-11-26 06:35:00,42.0,38.1,29.75,SE,140,1.0,2.0,86,0.00,,,0.00,70,WeatherCatV1.02B3,2013-11-26 14:35:00,
2013-11-26 06:40:00,42.3,38.4,29.75,NE,49,1.0,2.0,86,0.00,,,0.00,79,WeatherCatV1.02B3,2013-11-26 14:40:00,
2013-11-26 06:45:00,42.8,38.9,29.75,North,0,1.0,3.0,86,0.00,,,0.00,83,WeatherCatV1.02B3,2013-11-26 14:45:00,
2013-11-26 06:50:00,43.7,39.2,29.75,NE,39,2.0,2.0,84,0.00,,,0.00,90,WeatherCatV1.02B3,2013-11-26 14:50:00,
2013-11-26 06:55:00,44.2,39.7,29.75,ENE,70,2.0,0.0,84,0.00,,,0.00,97,WeatherCatV1.02B3,2013-11-26 14:55:00,
2013-11-26 07:00:00,44.7,39.5,29.75,ENE,69,0.0,1.0,82,0.00,,,0.00,95,WeatherCatV1.02B3,2013-11-26 15:00:00,
2013-11-26 07:05:00,45.3,39.8,29.75,ENE,75,0.0,2.0,81,0.00,,,0.00,88,WeatherCatV1.02B3,2013-11-26 15:05:00,
2013-11-26 07:10:00,45.9,39.8,29.75,ENE,71,1.0,0.0,79,0.00,,,0.00,84,WeatherCatV1.02B3,2013-11-26 15:10:00,
2013-11-26 07:15:00,46.5,40.0,29.75,ESE,104,1.0,2.0,78,0.00,,,0.00,65,WeatherCatV1.02B3,2013-11-26 15:15:00,
2013-11-26 07:20:00,46.8,40.3,29.75,SE,137,0.0,0.0,78,0.00,,,0.00,65,WeatherCatV1.02B3,2013-11-26 15:20:00,
2013-11-26 07:25:00,47.2,40.7,29.75,SE,132,0.0,0.0,78,0.00,,,0.00,62,WeatherCatV1.02B3,2013-11-26 15:25:00,
2013-11-26 07:30:00,47.5,40.7,29.75,South,170,0.0,0.0,77,0.00,,,0.00,118,WeatherCatV1.02B3,2013-11-26 15:30:00,
2013-11-26 07:35:00,47.9,40.7,29.75,South,191,0.0,0.0,76,0.00,,,0.00,72,WeatherCatV1.02B3,2013-11-26 15:35:00,
2013-11-26 07:40:00,48.5,41.3,29.75,SE,135,0.0,1.0,76,0.00,,,0.00,90,WeatherCatV1.02B3,2013-11-26 15:40:00,
2013-11-26 07:45:00,48.8,41.2,29.75,SSE,149,0.0,1.0,75,0.00,,,0.00,113,WeatherCatV1.02B3,2013-11-26 15:45:00,
2013-11-26 07:50:00,49.5,41.2,29.75,ESE,118,1.0,1.0,73,0.00,,,0.00,325,WeatherCatV1.02B3,2013-11-26 15:50:00,
2013-11-26 07:55:00,50.0,41.7,29.75,SW,220,0.0,0.0,73,0.00,,,0.00,281,WeatherCatV1.02B3,2013-11-26 15:55:00,
2013-11-26 08:00:00,50.4,41.7,29.75,WSW,241,0.0,0.0,72,0.00,,,0.00,262,WeatherCatV1.02B3,2013-11-26 16:00:00,
2013-11-26 08:05:00,50.9,42.2,29.75,WSW,245,0.0,0.0,72,0.00,,,0.00,408,WeatherCatV1.02B3,2013-11-26 16:05:00,
2013-11-26 08:10:00,51.2,42.1,29.75,WSW,246,0.0,0.0,71,0.00,,,0.00,346,WeatherCatV1.02B3,2013-11-26 16:10:00,
2013-11-26 08:15:00,51.8,42.7,29.75,WSW,246,0.0,1.0,71,0.00,,,0.00,288,WeatherCatV1.02B3,2013-11-26 16:15:00,
2013-11-26 08:20:00,52.8,42.9,29.75,ESE,121,0.0,1.0,69,0.00,,,0.00,195,WeatherCatV1.02B3,2013-11-26 16:20:00,
2013-11-26 08:25:00,53.6,42.1,29.75,East,90,0.0,1.0,65,0.00,,,0.00,162,WeatherCatV1.02B3,2013-11-26 16:25:00,
2013-11-26 08:30:00,54.4,42.9,29.75,East,84,0.0,0.0,65,0.00,,,0.00,318,WeatherCatV1.02B3,2013-11-26 16:30:00,
2013-11-26 08:35:00,55.3,42.9,29.75,East,82,0.0,0.0,63,0.00,,,0.00,383,WeatherCatV1.02B3,2013-11-26 16:35:00,
2013-11-26 08:40:00,56.2,43.4,29.75,SSE,148,0.0,2.0,62,0.00,,,0.00,496,WeatherCatV1.02B3,2013-11-26 16:40:00,
2013-11-26 08:45:00,57.4,42.3,29.75,SW,221,0.0,0.0,57,0.00,,,0.00,443,WeatherCatV1.02B3,2013-11-26 16:45:00,
2013-11-26 08:50:00,58.2,42.6,29.75,SW,235,0.0,0.0,56,0.00,,,0.00,406,WeatherCatV1.02B3,2013-11-26 16:50:00,
2013-11-26 08:55:00,59.0,42.9,29.75,South,183,0.0,1.0,55,0.00,,,0.00,348,WeatherCatV1.02B3,2013-11-26 16:55:00,
2013-11-26 09:00:00,60.4,43.2,29.75,ESE,120,0.0,1.0,53,0.00,,,0.00,295,WeatherCatV1.02B3,2013-11-26 17:00:00,
2013-11-26 09:05:00,61.3,42.0,29.75,South,173,0.0,1.0,49,0.00,,,0.00,267,WeatherCatV1.02B3,2013-11-26 17:05:00,
2013-11-26 09:10:00,62.1,41.6,29.75,West,269,0.0,0.0,47,0.00,,,0.00,281,WeatherCatV1.02B3,2013-11-26 17:10:00,
2013-11-26 09:15:00,62.6,42.6,29.75,NW,308,0.0,0.0,48,0.00,,,0.00,427,WeatherCatV1.02B3,2013-11-26 17:15:00,
2013-11-26 09:20:00,63.3,41.0,29.75,NW,323,0.0,0.0,44,0.00,,,0.00,490,WeatherCatV1.02B3,2013-11-26 17:20:00,
2013-11-26 09:25:00,64.1,41.1,29.75,NW,326,0.0,1.0,43,0.00,,,0.00,457,WeatherCatV1.02B3,2013-11-26 17:25:00,
2013-11-26 09:30:00,64.8,40.5,29.75,NW,306,0.0,1.0,41,0.00,,,0.00,494,WeatherCatV1.02B3,2013-11-26 17:30:00,
2013-11-26 09:35:00,66.0,41.6,29.75,North,350,0.0,0.0,41,0.00,,,0.00,635,WeatherCatV1.02B3,2013-11-26 17:35:00,
2013-11-26 09:40:00,67.2,42.7,29.75,NNE,21,0.0,2.0,41,0.00,,,0.00,418,WeatherCatV1.02B3,2013-11-26 17:40:00,
2013-11-26 09:45:00,68.4,40.4,29.75,NE,47,0.0,3.0,36,0.00,,,0.00,413,WeatherCatV1.02B3,2013-11-26 17:45:00,
2013-11-26 09:50:00,69.2,40.4,29.75,NNW,343,1.0,1.0,35,0.00,,,0.00,387,WeatherCatV1.02B3,2013-11-26 17:50:00,
2013-11-26 09:55:00,70.3,39.8,29.75,NW,325,1.0,1.0,33,0.00,,,0.00,241,WeatherCatV1.02B3,2013-11-26 17:55:00,
2013-11-26 10:00:00,71.0,41.2,29.75,West,261,1.0,2.0,34,0.00,,,0.00,253,WeatherCatV1.02B3,2013-11-26 18:00:00,
2013-11-26 10:05:00,71.3,40.7,29.75,WSW,252,1.0,7.0,33,0.00,,,0.00,246,WeatherCatV1.02B3,2013-11-26 18:05:00,
2013-11-26 10:10:00,71.1,43.5,29.75,West,264,3.0,4.0,37,0.00,,,0.00,408,WeatherCatV1.02B3,2013-11-26 18:10:00,
2013-11-26 10:15:00,71.0,46.1,29.75,West,267,3.0,5.0,41,0.00,,,0.00,675,WeatherCatV1.02B3,2013-11-26 18:15:00,
2013-11-26 10:20:00,71.3,47.0,29.75,West,280,2.0,4.0,42,0.00,,,0.00,705,WeatherCatV1.02B3,2013-11-26 18:20:00,
2013-11-26 10:25:00,71.9,46.3,29.75,NW,311,2.0,4.0,40,0.00,,,0.00,650,WeatherCatV1.02B3,2013-11-26 18:25:00,
2013-11-26 10:30:00,72.7,46.3,29.75,NNW,337,2.0,5.0,39,0.00,,,0.00,684,WeatherCatV1.02B3,2013-11-26 18:30:00,
2013-11-26 10:35:00,73.4,46.9,29.75,North,359,1.0,3.0,39,0.00,,,0.00,631,WeatherCatV1.02B3,2013-11-26 18:35:00,
2013-11-26 10:40:00,73.9,47.4,29.75,NW,322,1.0,3.0,39,0.00,,,0.00,536,WeatherCatV1.02B3,2013-11-26 18:40:00,
2013-11-26 10:45:00,73.9,47.4,29.75,West,280,2.0,5.0,39,0.00,,,0.00,406,WeatherCatV1.02B3,2013-11-26 18:45:00,
2013-11-26 10:50:00,73.3,48.2,29.75,West,278,3.0,8.0,41,0.00,,,0.00,608,WeatherCatV1.02B3,2013-11-26 18:50:00,
2013-11-26 10:55:00,73.0,49.2,29.75,West,267,4.0,5.0,43,0.00,,,0.00,608,WeatherCatV1.02B3,2013-11-26 18:55:00,
2013-11-26 11:00:00,72.9,49.1,29.75,WNW,295,3.0,5.0,43,0.00,,,0.00,350,WeatherCatV1.02B3,2013-11-26 19:00:00,
2013-11-26 11:05:00,73.3,48.8,29.75,West,264,1.0,6.0,42,0.00,,,0.00,629,WeatherCatV1.02B3,2013-11-26 19:05:00,
2013-11-26 11:10:00,73.9,48.7,29.75,West,271,1.0,3.0,41,0.00,,,0.00,536,WeatherCatV1.02B3,2013-11-26 19:10:00,
2013-11-26 11:15:00,74.0,48.8,29.75,WNW,295,1.0,3.0,41,0.00,,,0.00,404,WeatherCatV1.02B3,2013-11-26 19:15:00,
2013-11-26 11:20:00,74.0,49.4,29.75,WNW,293,1.0,4.0,42,0.00,,,0.00,450,WeatherCatV1.02B3,2013-11-26 19:20:00,
2013-11-26 11:25:00,74.0,49.4,29.75,WNW,293,1.0,4.0,42,0.00,,,0.00,450,WeatherCatV1.02B3,2013-11-26 19:25:00,
2013-11-26 11:30:00,74.1,50.2,29.75,WNW,284,1.0,1.0,43,0.00,,,0.00,404,WeatherCatV1.02B3,2013-11-26 19:30:00,
2013-11-26 11:35:00,74.3,49.1,29.75,WNW,295,1.0,2.0,41,0.00,,,0.00,589,WeatherCatV1.02B3,2013-11-26 19:35:00,
2013-11-26 11:40:00,74.4,49.8,29.75,NW,314,1.0,4.0,42,0.00,,,0.00,520,WeatherCatV1.02B3,2013-11-26 19:40:00,
2013-11-26 11:45:00,74.4,49.2,29.75,NW,310,1.0,5.0,41,0.00,,,0.00,520,WeatherCatV1.02B3,2013-11-26 19:45:00,
2013-11-26 11:50:00,74.2,49.0,29.75,North,1,1.0,2.0,41,0.00,,,0.00,475,WeatherCatV1.02B3,2013-11-26 19:50:00,
2013-11-26 11:55:00,74.0,49.4,29.75,NW,309,1.0,2.0,42,0.00,,,0.00,362,WeatherCatV1.02B3,2013-11-26 19:55:00,
2013-11-26 12:00:00,73.8,48.6,29.75,West,278,1.0,4.0,41,0.00,,,0.00,264,WeatherCatV1.02B3,2013-11-26 20:00:00,
2013-11-26 12:05:00,73.6,49.7,29.75,WNW,288,1.0,0.0,43,0.00,,,0.00,406,WeatherCatV1.02B3,2013-11-26 20:05:00,
2013-11-26 12:10:00,73.6,49.7,29.75,WNW,288,1.0,0.0,43,0.00,,,0.00,406,WeatherCatV1.02B3,2013-11-26 20:10:00,
2013-11-26 12:15:00,73.5,49.0,29.75,West,277,1.0,3.0,42,0.00,,,0.00,334,WeatherCatV1.02B3,2013-11-26 20:15:00,
2013-11-26 12:20:00,73.5,49.0,29.75,West,277,1.0,3.0,42,0.00,,,0.00,334,WeatherCatV1.02B3,2013-11-26 20:20:00,
2013-11-26 12:25:00,73.7,48.5,29.75,NW,321,0.0,0.0,41,0.00,,,0.00,265,WeatherCatV1.02B3,2013-11-26 20:25:00,
2013-11-26 12:30:00,73.7,48.5,29.75,NW,321,0.0,0.0,41,0.00,,,0.00,265,WeatherCatV1.02B3,2013-11-26 20:30:00,
2013-11-26 12:35:00,73.8,45.9,29.75,North,351,0.0,3.0,37,0.00,,,0.00,218,WeatherCatV1.02B3,2013-11-26 20:35:00,
2013-11-26 12:40:00,73.9,46.0,29.75,WSW,250,1.0,1.0,37,0.00,,,0.00,520,WeatherCatV1.02B3,2013-11-26 20:40:00,
2013-11-26 12:45:00,74.2,45.5,29.75,SE,134,1.0,2.0,36,0.00,,,0.00,545,WeatherCatV1.02B3,2013-11-26 20:45:00,
2013-11-26 12:50:00,74.7,45.2,29.75,ENE,77,0.0,2.0,35,0.00,,,0.00,359,WeatherCatV1.02B3,2013-11-26 20:50:00,
2013-11-26 12:55:00,75.2,45.6,29.75,NNE,21,0.0,1.0,35,0.00,,,0.00,355,WeatherCatV1.02B3,2013-11-26 20:55:00,
2013-11-26 13:00:00,75.5,43.6,29.75,North,352,1.0,4.0,32,0.00,,,0.00,489,WeatherCatV1.02B3,2013-11-26 21:00:00,
2013-11-26 13:05:00,75.7,44.5,29.75,NNW,341,1.0,4.0,33,0.00,,,0.00,446,WeatherCatV1.02B3,2013-11-26 21:05:00,
2013-11-26 13:10:00,75.8,43.8,29.75,North,9,1.0,2.0,32,0.00,,,0.00,369,WeatherCatV1.02B3,2013-11-26 21:10:00,
2013-11-26 13:15:00,75.9,43.9,29.75,NE,51,1.0,1.0,32,0.00,,,0.00,432,WeatherCatV1.02B3,2013-11-26 21:15:00,
2013-11-26 13:20:00,76.0,43.2,29.75,ENE,60,0.0,2.0,31,0.00,,,0.00,427,WeatherCatV1.02B3,2013-11-26 21:20:00,
2013-11-26 13:25:00,75.9,42.2,29.75,NNE,24,0.0,1.0,30,0.00,,,0.00,111,WeatherCatV1.02B3,2013-11-26 21:25:00,
2013-11-26 13:30:00,75.7,42.9,29.75,North,7,0.0,1.0,31,0.00,,,0.00,207,WeatherCatV1.02B3,2013-11-26 21:30:00,
2013-11-26 13:35:00,75.3,41.7,29.75,ENE,72,0.0,2.0,30,0.00,,,0.00,105,WeatherCatV1.02B3,2013-11-26 21:35:00,
2013-11-26 13:40:00,74.7,42.0,29.75,East,84,0.0,0.0,31,0.00,,,0.00,118,WeatherCatV1.02B3,2013-11-26 21:40:00,
2013-11-26 13:45:00,74.2,42.4,29.75,NNE,29,0.0,1.0,32,0.00,,,0.00,155,WeatherCatV1.02B3,2013-11-26 21:45:00,
2013-11-26 13:50:00,73.7,41.2,29.75,ENE,60,0.0,4.0,31,0.00,,,0.00,116,WeatherCatV1.02B3,2013-11-26 21:50:00,
2013-11-26 13:55:00,73.1,39.8,29.75,ENE,65,1.0,1.0,30,0.00,,,0.00,118,WeatherCatV1.02B3,2013-11-26 21:55:00,
2013-11-26 14:00:00,72.6,41.0,29.75,East,89,1.0,1.0,32,0.00,,,0.00,104,WeatherCatV1.02B3,2013-11-26 22:00:00,
2013-11-26 14:05:00,72.3,41.6,29.75,East,91,0.0,3.0,33,0.00,,,0.00,79,WeatherCatV1.02B3,2013-11-26 22:05:00,
2013-11-26 14:10:00,71.9,40.4,29.75,ESE,110,0.0,1.0,32,0.00,,,0.00,69,WeatherCatV1.02B3,2013-11-26 22:10:00,
2013-11-26 14:15:00,71.5,40.9,29.75,ESE,106,0.0,1.0,33,0.00,,,0.00,74,WeatherCatV1.02B3,2013-11-26 22:15:00,
2013-11-26 14:20:00,71.1,40.5,29.75,ENE,77,0.0,1.0,33,0.00,,,0.00,97,WeatherCatV1.02B3,2013-11-26 22:20:00,
2013-11-26 14:25:00,70.9,40.4,29.75,East,100,0.0,1.0,33,0.00,,,0.00,109,WeatherCatV1.02B3,2013-11-26 22:25:00,
2013-11-26 14:30:00,70.8,38.7,29.75,ENE,63,0.0,1.0,31,0.00,,,0.00,123,WeatherCatV1.02B3,2013-11-26 22:30:00,
2013-11-26 14:35:00,71.0,38.8,29.75,NNW,330,1.0,4.0,31,0.00,,,0.00,121,WeatherCatV1.02B3,2013-11-26 22:35:00,
2013-11-26 14:40:00,71.2,39.8,29.75,WNW,295,1.0,3.0,32,0.00,,,0.00,100,WeatherCatV1.02B3,2013-11-26 22:40:00,
2013-11-26 14:45:00,71.4,40.8,29.75,NW,307,1.0,0.0,33,0.00,,,0.00,81,WeatherCatV1.02B3,2013-11-26 22:45:00,
2013-11-26 14:50:00,71.5,41.6,29.75,NW,309,1.0,2.0,34,0.00,,,0.00,69,WeatherCatV1.02B3,2013-11-26 22:50:00,
2013-11-26 14:55:00,71.4,38.3,29.75,West,272,2.0,5.0,30,0.00,,,0.00,44,WeatherCatV1.02B3,2013-11-26 22:55:00,
2013-11-26 15:00:00,71.0,38.0,29.75,West,266,4.0,6.0,30,0.00,,,0.00,39,WeatherCatV1.02B3,2013-11-26 23:00:00,
2013-11-26 15:05:00,70.6,37.7,29.75,West,266,4.0,4.0,30,0.00,,,0.00,37,WeatherCatV1.02B3,2013-11-26 23:05:00,
2013-11-26 15:10:00,70.6,37.7,29.75,West,266,4.0,4.0,30,0.00,,,0.00,37,WeatherCatV1.02B3,2013-11-26 23:10:00,
2013-11-26 15:15:00,70.6,37.7,29.75,West,266,4.0,4.0,30,0.00,,,0.00,37,WeatherCatV1.02B3,2013-11-26 23:15:00,
2013-11-26 15:20:00,69.2,38.1,29.75,West,268,1.0,4.0,32,0.00,,,0.00,28,WeatherCatV1.02B3,2013-11-26 23:20:00,
2013-11-26 15:25:00,68.6,37.6,29.75,West,272,1.0,2.0,32,0.00,,,0.00,25,WeatherCatV1.02B3,2013-11-26 23:25:00,
2013-11-26 15:30:00,67.9,39.2,29.75,West,269,1.0,5.0,35,0.00,,,0.00,19,WeatherCatV1.02B3,2013-11-26 23:30:00,
2013-11-26 15:35:00,67.4,38.0,29.75,West,264,1.0,4.0,34,0.00,,,0.00,16,WeatherCatV1.02B3,2013-11-26 23:35:00,
2013-11-26 15:40:00,66.8,37.5,29.75,West,259,1.0,1.0,34,0.00,,,0.00,11,WeatherCatV1.02B3,2013-11-26 23:40:00,
2013-11-26 15:45:00,66.5,38.0,29.75,West,264,1.0,2.0,35,0.00,,,0.00,5,WeatherCatV1.02B3,2013-11-26 23:45:00,
2013-11-26 15:50:00,66.1,37.7,29.75,West,280,1.0,1.0,35,0.00,,,0.00,0,WeatherCatV1.02B3,2013-11-26 23:50:00,
2013-11-26 15:55:00,65.7,38.0,29.75,WNW,287,0.0,0.0,36,0.00,,,0.00,0,WeatherCatV1.02B3,2013-11-26 23:55:00,
2013-11-26 16:00:00,65.4,38.4,29.75,WNW,288,0.0,0.0,37,0.00,,,0.00,0,WeatherCatV1.02B3,2013-11-27 00:00:00,
2013-11-26 16:05:00,64.9,38.0,29.75,NW,325,0.0,0.0,37,0.00,,,0.00,0,WeatherCatV1.02B3,2013-11-27 00:05:00,
2013-11-26 16:10:00,64.3,38.2,29.75,NNW,333,0.0,0.0,38,0.00,,,0.00,0,WeatherCatV1.02B3,2013-11-27 00:10:00,
2013-11-26 16:15:00,64.1,38.6,29.75,NNW,335,0.0,0.0,39,0.00,,,0.00,0,WeatherCatV1.02B3,2013-11-27 00:15:00,
2013-11-26 16:20:00,63.8,39.0,29.75,NNW,335,0.0,0.0,40,0.00,,,0.00,0,WeatherCatV1.02B3,2013-11-27 00:20:00,
2013-11-26 16:25:00,63.6,38.2,29.75,NNW,335,0.0,0.0,39,0.00,,,0.00,0,WeatherCatV1.02B3,2013-11-27 00:25:00,
2013-11-26 16:30:00,63.1,38.4,29.75,NNW,335,0.0,0.0,40,0.00,,,0.00,0,WeatherCatV1.02B3,2013-11-27 00:30:00,
2013-11-26 16:35:00,62.7,38.7,29.75,NNW,335,0.0,0.0,41,0.00,,,0.00,0,WeatherCatV1.02B3,2013-11-27 00:35:00,
2013-11-26 16:40:00,62.3,38.9,29.75,NNW,335,0.0,0.0,42,0.00,,,0.00,0,WeatherCatV1.02B3,2013-11-27 00:40:00,
2013-11-26 16:45:00,62.0,39.8,29.75,NNW,335,0.0,0.0,44,0.00,,,0.00,0,WeatherCatV1.02B3,2013-11-27 00:45:00,
2013-11-26 16:50:00,61.6,40.0,29.75,NNW,335,0.0,0.0,45,0.00,,,0.00,0,WeatherCatV1.02B3,2013-11-27 00:50:00,
2013-11-26 16:55:00,61.3,40.3,29.75,NNW,335,0.0,0.0,46,0.00,,,0.00,0,WeatherCatV1.02B3,2013-11-27 00:55:00,
2013-11-26 17:00:00,60.9,41.6,29.75,NNW,335,0.0,0.0,49,0.00,,,0.00,0,WeatherCatV1.02B3,2013-11-27 01:00:00,
2013-11-26 17:05:00,60.6,41.3,29.75,NNW,335,0.0,0.0,49,0.00,,,0.00,0,WeatherCatV1.02B3,2013-11-27 01:05:00,
2013-11-26 17:10:00,60.4,41.7,29.75,NNW,335,0.0,0.0,50,0.00,,,0.00,0,WeatherCatV1.02B3,2013-11-27 01:10:00,
2013-11-26 17:15:00,60.0,40.8,29.75,NNW,335,0.0,0.0,49,0.00,,,0.00,0,WeatherCatV1.02B3,2013-11-27 01:15:00,
2013-11-26 17:20:00,59.6,42.0,29.75,NNW,335,0.0,0.0,52,0.00,,,0.00,0,WeatherCatV1.02B3,2013-11-27 01:20:00,
2013-11-26 17:25:00,59.3,41.7,29.75,NNW,335,0.0,0.0,52,0.00,,,0.00,0,WeatherCatV1.02B3,2013-11-27 01:25:00,
2013-11-26 17:30:00,59.1,41.5,29.75,NNW,335,0.0,0.0,52,0.00,,,0.00,0,WeatherCatV1.02B3,2013-11-27 01:30:00,
2013-11-26 17:35:00,58.8,41.2,29.75,NNW,335,0.0,0.0,52,0.00,,,0.00,0,WeatherCatV1.02B3,2013-11-27 01:35:00,
2013-11-26 17:40:00,58.3,41.7,29.75,North,349,0.0,3.0,54,0.00,,,0.00,0,WeatherCatV1.02B3,2013-11-27 01:40:00,
2013-11-26 17:45:00,58.1,41.1,29.75,North,6,1.0,0.0,53,0.00,,,0.00,0,WeatherCatV1.02B3,2013-11-27 01:45:00,
2013-11-26 17:50:00,58.0,41.5,29.75,NNE,29,0.0,1.0,54,0.00,,,0.00,0,WeatherCatV1.02B3,2013-11-27 01:50:00,
2013-11-26 17:55:00,58.0,41.5,29.75,NE,37,0.0,0.0,54,0.00,,,0.00,0,WeatherCatV1.02B3,2013-11-27 01:55:00,
2013-11-26 18:00:00,58.0,41.5,29.75,NE,37,0.0,0.0,54,0.00,,,0.00,0,WeatherCatV1.02B3,2013-11-27 02:00:00,
2013-11-26 18:05:00,57.9,41.8,29.75,NE,40,0.0,0.0,55,0.00,,,0.00,0,WeatherCatV1.02B3,2013-11-27 02:05:00,
2013-11-26 18:10:00,57.8,41.3,29.75,NE,40,0.0,0.0,54,0.00,,,0.00,0,WeatherCatV1.02B3,2013-11-27 02:10:00,
2013-11-26 18:15:00,57.8,42.2,29.75,NE,40,0.0,0.0,56,0.00,,,0.00,0,WeatherCatV1.02B3,2013-11-27 02:15:00,
2013-11-26 18:20:00,57.6,41.6,29.75,NE,40,0.0,0.0,55,0.00,,,0.00,0,WeatherCatV1.02B3,2013-11-27 02:20:00,
2013-11-26 18:25:00,57.4,41.4,29.75,NE,40,0.0,0.0,55,0.00,,,0.00,0,WeatherCatV1.02B3,2013-11-27 02:25:00,
2013-11-26 18:30:00,57.1,41.1,29.75,NNE,15,0.0,4.0,55,0.00,,,0.00,0,WeatherCatV1.02B3,2013-11-27 02:30:00,
2013-11-26 18:35:00,56.9,42.3,29.75,NNE,22,1.0,0.0,58,0.00,,,0.00,0,WeatherCatV1.02B3,2013-11-27 02:35:00,
2013-11-26 18:40:00,56.7,41.6,29.75,NE,40,1.0,2.0,57,0.00,,,0.00,0,WeatherCatV1.02B3,2013-11-27 02:40:00,
2013-11-26 18:45:00,56.4,41.4,29.75,NNE,14,1.0,1.0,57,0.00,,,0.00,0,WeatherCatV1.02B3,2013-11-27 02:45:00,
2013-11-26 18:50:00,56.4,41.4,29.75,NNE,19,1.0,3.0,57,0.00,,,0.00,0,WeatherCatV1.02B3,2013-11-27 02:50:00,
2013-11-26 18:55:00,56.3,41.3,29.75,NNE,27,0.0,1.0,57,0.00,,,0.00,0,WeatherCatV1.02B3,2013-11-27 02:55:00,
2013-11-26 19:00:00,56.2,41.6,29.75,NNE,30,0.0,1.0,58,0.00,,,0.00,0,WeatherCatV1.02B3,2013-11-27 03:00:00,
2013-11-26 19:05:00,56.2,41.6,29.75,NNE,31,0.0,0.0,58,0.00,,,0.00,0,WeatherCatV1.02B3,2013-11-27 03:05:00,
2013-11-26 19:10:00,56.0,41.4,29.75,NNE,31,0.0,0.0,58,0.00,,,0.00,0,WeatherCatV1.02B3,2013-11-27 03:10:00,
2013-11-26 19:15:00,55.9,41.3,29.75,NNE,31,0.0,0.0,58,0.00,,,0.00,0,WeatherCatV1.02B3,2013-11-27 03:15:00,
2013-11-26 19:20:00,55.6,41.1,29.75,NNE,31,0.0,0.0,58,0.00,,,0.00,0,WeatherCatV1.02B3,2013-11-27 03:20:00,
2013-11-26 19:25:00,55.1,40.6,29.75,NNE,31,0.0,0.0,58,0.00,,,0.00,0,WeatherCatV1.02B3,2013-11-27 03:25:00,
2013-11-26 19:30:00,54.7,40.2,29.75,NNE,31,0.0,0.0,58,0.00,,,0.00,0,WeatherCatV1.02B3,2013-11-27 03:30:00,
2013-11-26 19:35:00,54.5,40.0,29.75,NNE,31,0.0,0.0,58,0.00,,,0.00,0,WeatherCatV1.02B3,2013-11-27 03:35:00,
2013-11-26 19:40:00,54.2,40.2,29.75,NNE,31,0.0,0.0,59,0.00,,,0.00,0,WeatherCatV1.02B3,2013-11-27 03:40:00,
2013-11-26 19:45:00,53.7,40.6,29.75,NNE,31,0.0,0.0,61,0.00,,,0.00,0,WeatherCatV1.02B3,2013-11-27 03:45:00,
2013-11-26 19:50:00,53.3,40.2,29.75,NNE,31,0.0,0.0,61,0.00,,,0.00,0,WeatherCatV1.02B3,2013-11-27 03:50:00,
2013-11-26 19:55:00,53.0,40.3,29.75,NNE,31,0.0,0.0,62,0.00,,,0.00,0,WeatherCatV1.02B3,2013-11-27 03:55:00,
2013-11-26 20:00:00,52.8,40.1,29.75,NNE,31,0.0,0.0,62,0.00,,,0.00,0,WeatherCatV1.02B3,2013-11-27 04:00:00,
2013-11-26 20:05:00,52.6,40.4,29.75,NNE,31,0.0,0.0,63,0.00,,,0.00,0,WeatherCatV1.02B3,2013-11-27 04:05:00,
2013-11-26 20:10:00,52.3,40.5,29.75,NNE,31,0.0,0.0,64,0.00,,,0.00,0,WeatherCatV1.02B3,2013-11-27 04:10:00,
2013-11-26 20:15:00,52.1,40.7,29.75,NNE,31,0.0,0.0,65,0.00,,,0.00,0,WeatherCatV1.02B3,2013-11-27 04:15:00,
2013-11-26 20:20:00,51.9,40.9,29.75,NNE,31,0.0,0.0,66,0.00,,,0.00,0,WeatherCatV1.02B3,2013-11-27 04:20:00,
2013-11-26 20:25:00,51.8,40.8,29.75,NNE,31,0.0,0.0,66,0.00,,,0.00,0,WeatherCatV1.02B3,2013-11-27 04:25:00,
2013-11-26 20:30:00,51.8,40.8,29.75,NNE,31,0.0,0.0,66,0.00,,,0.00,0,WeatherCatV1.02B3,2013-11-27 04:30:00,
2013-11-26 20:35:00,51.8,40.8,29.75,NNE,31,0.0,0.0,66,0.00,,,0.00,0,WeatherCatV1.02B3,2013-11-27 04:35:00,
2013-11-26 20:40:00,51.8,40.8,29.75,NNE,31,0.0,0.0,66,0.00,,,0.00,0,WeatherCatV1.02B3,2013-11-27 04:40:00,
2013-11-26 20:45:00,51.8,40.8,29.75,NNE,31,0.0,0.0,66,0.00,,,0.00,0,WeatherCatV1.02B3,2013-11-27 04:45:00,
2013-11-26 20:50:00,51.8,40.8,29.75,NNE,31,0.0,0.0,66,0.00,,,0.00,0,WeatherCatV1.02B3,2013-11-27 04:50:00,
2013-11-26 20:55:00,51.8,40.8,29.75,NNE,31,0.0,0.0,66,0.00,,,0.00,0,WeatherCatV1.02B3,2013-11-27 04:55:00,
2013-11-26 21:00:00,51.8,40.8,29.75,NNE,31,0.0,0.0,66,0.00,,,0.00,0,WeatherCatV1.02B3,2013-11-27 05:00:00,
2013-11-26 21:05:00,51.8,40.8,29.75,NNE,31,0.0,0.0,66,0.00,,,0.00,0,WeatherCatV1.02B3,2013-11-27 05:05:00,
2013-11-26 21:10:00,51.8,40.8,29.75,NNE,31,0.0,0.0,66,0.00,,,0.00,0,WeatherCatV1.02B3,2013-11-27 05:10:00,
2013-11-26 21:15:00,51.8,40.8,29.75,NNE,31,0.0,0.0,66,0.00,,,0.00,0,WeatherCatV1.02B3,2013-11-27 05:15:00,
2013-11-26 21:20:00,51.9,40.9,29.75,NNE,22,0.0,0.0,66,0.00,,,0.00,0,WeatherCatV1.02B3,2013-11-27 05:20:00,
2013-11-26 21:25:00,51.7,40.7,29.75,NNE,22,0.0,0.0,66,0.00,,,0.00,0,WeatherCatV1.02B3,2013-11-27 05:25:00,
2013-11-26 21:30:00,51.6,40.6,29.75,NNE,22,0.0,1.0,66,0.00,,,0.00,0,WeatherCatV1.02B3,2013-11-27 05:30:00,
2013-11-26 21:35:00,51.5,41.3,29.75,NNE,22,0.0,1.0,68,0.00,,,0.00,0,WeatherCatV1.02B3,2013-11-27 05:35:00,
2013-11-26 21:40:00,51.3,41.1,29.75,NNE,22,0.0,0.0,68,0.00,,,0.00,0,WeatherCatV1.02B3,2013-11-27 05:40:00,
2013-11-26 21:45:00,51.2,41.4,29.75,NE,45,0.0,2.0,69,0.00,,,0.00,0,WeatherCatV1.02B3,2013-11-27 05:45:00,
2013-11-26 21:50:00,51.2,41.4,29.75,NNE,22,0.0,2.0,69,0.00,,,0.00,0,WeatherCatV1.02B3,2013-11-27 05:50:00,
2013-11-26 21:55:00,51.6,41.0,29.75,NNE,17,1.0,2.0,67,0.00,,,0.00,0,WeatherCatV1.02B3,2013-11-27 05:55:00,
2013-11-26 22:00:00,51.6,41.4,29.75,NNE,17,1.0,0.0,68,0.00,,,0.00,0,WeatherCatV1.02B3,2013-11-27 06:00:00,
2013-11-26 22:11:00,51.8,41.6,29.75,NNE,28,0.0,1.0,68,0.00,,,0.00,0,WeatherCatV1.02B3,2013-11-27 06:11:00,
2013-11-26 22:16:00,51.7,41.5,29.75,NNE,19,0.0,1.0,68,0.00,,,0.00,0,WeatherCatV1.02B3,2013-11-27 06:16:00,
2013-11-26 22:21:00,51.5,41.3,29.75,North,9,0.0,1.0,68,0.00,,,0.00,0,WeatherCatV1.02B3,2013-11-27 06:21:00,
2013-11-26 22:26:00,51.3,41.5,29.75,ENE,62,0.0,1.0,69,0.00,,,0.00,0,WeatherCatV1.02B3,2013-11-27 06:26:00,
2013-11-26 22:31:00,51.2,41.4,29.75,NE,45,0.0,0.0,69,0.00,,,0.00,0,WeatherCatV1.02B3,2013-11-27 06:31:00,
2013-11-26 22:36:00,51.0,41.2,29.75,NE,45,0.0,0.0,69,0.00,,,0.00,0,WeatherCatV1.02B3,2013-11-27 06:36:00,
2013-11-26 22:41:00,50.9,41.1,29.75,NE,56,0.0,1.0,69,0.00,,,0.00,0,WeatherCatV1.02B3,2013-11-27 06:41:00,
2013-11-26 22:46:00,50.6,41.2,29.75,NE,56,0.0,0.0,70,0.00,,,0.00,0,WeatherCatV1.02B3,2013-11-27 06:46:00,
2013-11-26 22:51:00,50.4,41.0,29.75,NE,56,0.0,0.0,70,0.00,,,0.00,0,WeatherCatV1.02B3,2013-11-27 06:51:00,
2013-11-26 22:56:00,50.3,40.9,29.75,NE,56,0.0,0.0,70,0.00,,,0.00,0,WeatherCatV1.02B3,2013-11-27 06:56:00,
2013-11-26 23:01:00,50.1,40.7,29.75,NE,56,0.0,0.0,70,0.00,,,0.00,0,WeatherCatV1.02B3,2013-11-27 07:01:00,
2013-11-26 23:06:00,49.9,40.9,29.75,NE,56,0.0,0.0,71,0.00,,,0.00,0,WeatherCatV1.02B3,2013-11-27 07:06:00,
2013-11-26 23:11:00,49.8,41.1,29.75,NE,41,1.0,2.0,72,0.00,,,0.00,0,WeatherCatV1.02B3,2013-11-27 07:11:00,
2013-11-26 23:16:00,50.0,41.3,29.75,ENE,64,0.0,1.0,72,0.00,,,0.00,0,WeatherCatV1.02B3,2013-11-27 07:16:00,
2013-11-26 23:21:00,50.0,41.3,29.75,ENE,64,0.0,1.0,72,0.00,,,0.00,0,WeatherCatV1.02B3,2013-11-27 07:21:00,
2013-11-26 23:26:00,49.9,41.2,29.75,ENE,64,0.0,0.0,72,0.00,,,0.00,0,WeatherCatV1.02B3,2013-11-27 07:26:00,
2013-11-26 23:31:00,49.7,41.0,29.75,ENE,64,0.0,0.0,72,0.00,,,0.00,0,WeatherCatV1.02B3,2013-11-27 07:31:00,
2013-11-26 23:36:00,49.6,40.9,29.75,ENE,64,0.0,1.0,72,0.00,,,0.00,0,WeatherCatV1.02B3,2013-11-27 07:36:00,
2013-11-26 23:41:00,49.4,40.8,29.75,ENE,64,0.0,0.0,72,0.00,,,0.00,0,WeatherCatV1.02B3,2013-11-27 07:41:00,
2013-11-26 23:46:00,49.3,41.0,29.75,ENE,64,0.0,0.0,73,0.00,,,0.00,0,WeatherCatV1.02B3,2013-11-27 07:46:00,
2013-11-26 23:51:00,49.1,40.8,29.75,ENE,64,0.0,0.0,73,0.00,,,0.00,0,WeatherCatV1.02B3,2013-11-27 07:51:00,
2013-11-26 23:56:00,49.0,40.7,29.75,ENE,64,0.0,0.0,73,0.00,,,0.00,0,WeatherCatV1.02B3,2013-11-27 07:56:00,